Voltar ao catálogo

SS 1

AtivoMilitarLEO
NORAD 10529·PAYLOAD·🇺🇸 United States

Lançado Dec 8, 1977 de Vandenberg Space Force Base

Loading…

Próximas Passagens (próximas 24 horas)

TLE

AtualizadoSource: Space-Track

Época: Sep 13, 2026, 23:33 UTC

1 10529U 77112D   26256.98181873  .00000351  00000-0  13688-3 0  9999
2 10529  63.3386 108.5664 0505032 163.8353 197.9500 13.90460534364540

Acompanhe SS 1 em tempo real com AllMySat

Download on the App Store